[[{"header":{"parameterUnit":"m.s-1","parameterCategory":1,"la1":30.2991,"la2":30.254,"lo1":-89.0895,"lo2":-89.0444,"dy":0.0017,"dx":0.0017,"nx":28,"ny":28,"refTime":"2025-08-04T03:00:00:Z","depth":0,"parameterNumber":2,"parameterNumberName":"U-component_of_WINDS"},"data":[0,0,0,0,0,0,0,0,0,0,0,0,0,0,0,0,0,0,0,0,0,0,0,0,0,0,0,0,0,0,0,0,0,0,0,0,0,0,0,0,0,0,0,0,0,0,0,0,0,0,0,0,0,0,0,0,0,0,-0.6133,-0.6135,0,-0.6361,-0.6363,-0.6366,-0.6474,-0.6474,-0.6473,-0.6473,-0.6711,-0.6717,-0.6724,0,0,0,0,0,0,0,0,0,0,0,0,0,-0.5795,-0.58,-0.6133,-0.6136,-0.6138,-0.636,-0.6363,-0.6366,-0.6474,-0.6473,-0.6473,-0.6473,-0.6709,-0.6717,-0.6724,0,0,0,0,0,0,0,0,0,0,0,0,0,-0.5974,-0.5802,-0.6132,-0.6219,-0.6229,-0.6359,-0.6363,-0.6367,-0.6474,-0.6473,-0.6473,-0.6473,-0.6706,-0.6716,-0.6725,-0.6789,0,0,-0.6755,-0.6759,0,0,0,0,0,0,0,0,-0.5964,-0.5986,-0.6203,-0.6213,-0.6224,-0.6388,-0.6331,-0.6509,-0.6474,-0.6381,-0.6473,-0.6473,-0.6604,-0.6622,-0.6666,-0.68,-0.681,-0.6756,-0.6762,-0.6766,-0.6769,0,0,0,0,0,0,0,-0.5951,-0.5977,-0.6223,-0.6206,-0.6219,-0.6247,-0.6272,-0.6365,-0.6491,-0.6389,-0.6397,-0.6422,-0.661,-0.6656,-0.6672,-0.6814,-0.6755,-0.6764,-0.677,-0.6774,-0.7012,-0.7013,0,0,0,0,0,0,-0.5924,-0.5966,-0.6216,-0.623,-0.6091,-0.6253,-0.6282,-0.6336,-0.649,-0.6513,-0.6422,-0.6427,-0.6639,-0.666,-0.6681,-0.6766,-0.6766,-0.6775,-0.678,-0.7012,-0.7012,-0.7013,0,0,0,0,0,0,-0.5916,-0.5945,-0.6207,-0.61,-0.6136,-0.6259,-0.632,-0.6341,-0.6387,-0.6515,-0.6539,-0.6446,-0.664,-0.6667,-0.6761,-0.6775,-0.6779,-0.6788,-0.7011,-0.7012,-0.7013,-0.6935,0,0,0,0,0,0,-0.5906,-0.5942,-0.5966,-0.61,-0.6141,-0.6282,-0.632,-0.6345,-0.6402,-0.641,-0.6544,-0.6566,-0.6642,-0.6746,-0.677,-0.6789,-0.6795,-0.701,-0.7011,-0.7012,-0.6937,-0.6933,-0.693,0,0,0,0,0,-0.5894,-0.5937,-0.5967,-0.5997,-0.6174,-0.6282,-0.6306,-0.6391,-0.6403,-0.643,-0.6512,-0.6562,-0.6769,-0.6755,-0.6783,-0.6805,-0.701,-0.7011,-0.7012,-0.6939,-0.6934,-0.693,0,0,0,0,0,0,-0.5804,-0.5956,-0.5991,-0.6079,-0.6166,-0.63,-0.6336,-0.6384,-0.6472,-0.6475,-0.6579,-0.6608,-0.6693,-0.6758,-0.6739,-0.6874,-0.6894,-0.6901,-0.6829,-0.6825,-0.6822,-0.6805,-0.6804,0,0,0,0,0,-0.5794,-0.5868,-0.5997,-0.6062,-0.6104,-0.6212,-0.6262,-0.632,-0.6416,-0.6454,-0.6544,-0.6636,-0.6723,-0.6777,-0.6864,-0.6947,-0.6978,-0.6975,-0.6972,-0.6968,-0.6973,-0.7022,-0.7023,-0.7017,-0.7017,-0.7017,0,0,-0.5775,-0.5867,-0.5908,-0.6046,-0.6121,-0.6196,-0.6243,-0.6321,-0.6378,-0.6467,-0.6561,-0.6629,-0.6739,-0.6827,-0.6871,-0.6885,-0.6982,-0.697,-0.6966,-0.6974,-0.7024,-0.7024,-0.7024,-0.7018,-0.7017,-0.7017,0,0,-0.5779,-0.5855,-0.5917,-0.5991,-0.6103,-0.6174,-0.6188,-0.6315,-0.6364,-0.6459,-0.6527,-0.6597,-0.6743,-0.6819,-0.6876,-0.6906,-0.6955,-0.6932,-0.6914,-0.696,-0.6961,-0.6962,-0.6973,-0.6976,-0.6936,-0.6936,-0.6936,0,-0.5741,-0.5856,-0.5944,-0.6017,-0.6076,-0.6158,-0.6222,-0.629,-0.6425,-0.6464,-0.6477,-0.6661,-0.6741,-0.6848,-0.6855,-0.6899,-0.692,-0.6918,-0.6953,-0.6955,-0.6957,-0.6969,-0.6973,-0.6932,-0.6933,-0.6933,-0.6934,0,-0.5805,-0.5883,-0.592,-0.6046,-0.6109,-0.6178,-0.6277,-0.633,-0.6382,-0.6452,-0.6548,-0.6646,-0.6754,-0.6783,-0.6836,-0.6898,-0.6903,-0.6933,-0.6955,-0.6953,-0.6966,-0.6971,-0.6927,-0.6929,-0.693,-0.6931,0,0,-0.5761,-0.5932,-0.5944,-0.6002,-0.6131,-0.6194,-0.6266,-0.6369,-0.6414,-0.6504,-0.6568,-0.6688,-0.6716,-0.6781,-0.6843,-0.6883,-0.6901,-0.6909,-0.6913,-0.6904,-0.6977,-0.6954,-0.6958,-0.6934,-0.6935,-0.6936,-0.6968,0,-0.5783,-0.5914,-0.5994,-0.6094,-0.6167,-0.6245,-0.6308,-0.6394,-0.6462,-0.6535,-0.661,-0.6694,-0.6725,-0.6764,-0.6808,-0.6889,-0.6917,-0.6888,-0.6996,-0.6998,-0.6967,-0.6965,-0.6941,-0.6967,-0.6973,-0.6974,-0.6975,0,-0.5827,-0.5912,-0.6018,-0.6138,-0.6172,-0.6227,-0.6328,-0.6396,-0.6496,-0.6542,-0.6613,-0.6674,-0.6755,-0.6769,-0.6882,-0.686,-0.6909,-0.6956,-0.6959,-0.6973,-0.6987,-0.698,-0.6977,-0.698,-0.6984,-0.6983,-0.6982,0,-0.5784,-0.5926,-0.6008,-0.6055,-0.6196,-0.6233,-0.6294,-0.6393,-0.645,-0.6538,-0.6576,-0.6673,-0.6727,-0.6801,-0.6887,-0.689,-0.6992,-0.7013,-0.7034,-0.7031,-0.7053,-0.7051,-0.7058,-0.7082,-0.7082,-0.7082,-0.7082,0,-0.5801,-0.5863,-0.599,-0.6041,-0.6113,-0.6204,-0.6274,-0.6341,-0.6428,-0.6494,-0.6568,-0.6628,-0.6738,-0.6812,-0.688,-0.6964,-0.6987,-0.7028,-0.7045,-0.7022,-0.7017,-0.7056,-0.7057,-0.7083,-0.7083,-0.7082,-0.7082,0,-0.5766,-0.5854,-0.5948,-0.6073,-0.6106,-0.6154,-0.6262,-0.6314,-0.6384,-0.6467,-0.6491,-0.6602,-0.6693,-0.6786,-0.691,-0.6956,-0.7038,-0.7061,-0.7003,-0.7013,-0.7029,-0.7026,-0.7063,-0.7073,-0.7088,-0.7087,-0.7087,0,-0.5772,-0.5821,-0.595,-0.5999,-0.6057,-0.6134,-0.6192,-0.6284,-0.6341,-0.6457,-0.6496,-0.6592,-0.6674,-0.6816,-0.6909,-0.7004,-0.7031,-0.7037,-0.7046,-0.7021,-0.7033,-0.7029,-0.7035,-0.7034,-0.7034,-0.7033,-0.7033,0,-0.5772,-0.5813,-0.5892,-0.5986,-0.6052,-0.6131,-0.6213,-0.6249,-0.6357,-0.6418,-0.6511,-0.6574,-0.6699,-0.6794,-0.69,-0.6965,-0.7017,-0.7029,-0.7039,-0.7016,-0.6981,-0.7001,-0.6995,-0.7028,-0.7029,-0.7029,-0.7029,-0.7029,-0.5759,-0.5806,-0.5904,-0.599,-0.606,-0.6135,-0.619,-0.6266,-0.6344,-0.6452,-0.6502,-0.6595,-0.6694,-0.6841,-0.6904,-0.698,-0.6994,-0.7009,-0.7013,-0.7015,-0.7009,-0.6967,-0.6999,-0.7,-0.7,-0.7,-0.7,0,-0.5764,-0.583,-0.5908,-0.6019,-0.6086,-0.6127,-0.622,-0.6274,-0.6355,-0.6441,-0.6519,-0.6626,-0.6718,-0.6817,-0.6915,-0.6957,-0.6984,-0.698,-0.6978,-0.6993,-0.699,-0.6972,-0.6957,-0.6957,-0.6957,-0.6956,-0.6956,-0.6956,-0.5775,-0.5857,-0.5908,-0.6026,-0.6093,-0.6183,-0.6233,-0.6302,-0.6371,-0.6486,-0.6563,-0.6625,-0.6718,-0.6823,-0.691,-0.6936,-0.697,-0.6959,-0.6993,-0.6989,-0.6993,-0.6996,-0.6979,-0.6965,-0.6965,-0.6989,-0.6989,-0.6989]},{"header":{"parameterUnit":"m.s-1","parameterCategory":1,"la1":30.2991,"la2":30.254,"lo1":-89.0895,"lo2":-89.0444,"dy":0.0017,"dx":0.0017,"nx":28,"ny":28,"refTime":"2025-08-04T03:00:00:Z","depth":0,"parameterNumber":3,"parameterNumberName":"V-component_of_WINDS"},"data":[0,0,0,0,0,0,0,0,0,0,0,0,0,0,0,0,0,0,0,0,0,0,0,0,0,0,0,0,0,0,0,0,0,0,0,0,0,0,0,0,0,0,0,0,0,0,0,0,0,0,0,0,0,0,0,0,0,0,-0.6144,-0.614,0,-0.5732,-0.5727,-0.5723,-0.554,-0.5541,-0.5541,-0.5542,-0.5106,-0.5095,-0.5083,0,0,0,0,0,0,0,0,0,0,0,0,0,-0.676,-0.6749,-0.6145,-0.614,-0.6134,-0.5733,-0.5727,-0.5721,-0.554,-0.5541,-0.5541,-0.5542,-0.511,-0.5096,-0.5081,0,0,0,0,0,0,0,0,0,0,0,0,0,-0.6434,-0.6746,-0.6146,-0.5996,-0.5978,-0.5734,-0.5727,-0.572,-0.554,-0.5541,-0.5542,-0.5542,-0.5115,-0.5097,-0.5079,-0.4949,0,0,-0.5024,-0.5016,0,0,0,0,0,0,0,0,-0.6453,-0.6412,-0.6023,-0.6006,-0.5986,-0.5689,-0.5784,-0.5461,-0.554,-0.5706,-0.5542,-0.5543,-0.5299,-0.5265,-0.5185,-0.4929,-0.491,-0.5022,-0.5011,-0.5003,-0.4998,0,0,0,0,0,0,0,-0.6476,-0.6428,-0.5981,-0.6017,-0.5995,-0.5944,-0.5899,-0.5722,-0.5502,-0.5691,-0.5677,-0.5632,-0.5288,-0.5204,-0.5174,-0.4904,-0.5023,-0.5007,-0.4995,-0.4988,-0.4514,-0.4513,0,0,0,0,0,0,-0.6525,-0.6449,-0.5994,-0.5969,-0.6227,-0.5932,-0.5882,-0.5783,-0.5503,-0.5462,-0.5631,-0.5625,-0.5234,-0.5195,-0.5158,-0.4984,-0.5003,-0.4986,-0.4976,-0.4516,-0.4514,-0.4512,0,0,0,0,0,0,-0.6539,-0.6486,-0.6011,-0.6204,-0.614,-0.5921,-0.5811,-0.5774,-0.5689,-0.5458,-0.5416,-0.5586,-0.5233,-0.5184,-0.5002,-0.4967,-0.4978,-0.4962,-0.4518,-0.4515,-0.4513,-0.4639,0,0,0,0,0,0,-0.6557,-0.6492,-0.6444,-0.6205,-0.6131,-0.5867,-0.5809,-0.5766,-0.566,-0.5647,-0.5405,-0.5365,-0.523,-0.5031,-0.4984,-0.4942,-0.4947,-0.452,-0.4517,-0.4514,-0.4637,-0.4641,-0.4644,0,0,0,0,0,-0.658,-0.6494,-0.6443,-0.6389,-0.6067,-0.5866,-0.5822,-0.5673,-0.5658,-0.5605,-0.5456,-0.5373,-0.4979,-0.5014,-0.496,-0.4912,-0.4522,-0.4518,-0.4514,-0.4635,-0.464,-0.4644,0,0,0,0,0,0,-0.6731,-0.646,-0.64,-0.6236,-0.6076,-0.5835,-0.5765,-0.5683,-0.5521,-0.5515,-0.5332,-0.5278,-0.5112,-0.4993,-0.5037,-0.4768,-0.4742,-0.4728,-0.4853,-0.4855,-0.4859,-0.489,-0.4932,0,0,0,0,0,-0.6746,-0.661,-0.6378,-0.6255,-0.6178,-0.5986,-0.5892,-0.5791,-0.5616,-0.5546,-0.5383,-0.5213,-0.5049,-0.4946,-0.4783,-0.4619,-0.456,-0.4558,-0.4562,-0.4567,-0.4555,-0.4455,-0.445,-0.45,-0.45,-0.45,0,0,-0.6774,-0.6609,-0.6533,-0.6281,-0.6145,-0.6003,-0.593,-0.5783,-0.5674,-0.5522,-0.5342,-0.5216,-0.5013,-0.4839,-0.4754,-0.4735,-0.4529,-0.4562,-0.4567,-0.4553,-0.4451,-0.4446,-0.4443,-0.4497,-0.4498,-0.4498,0,0,-0.6752,-0.6616,-0.6497,-0.6362,-0.6158,-0.603,-0.6002,-0.5773,-0.5685,-0.5502,-0.5384,-0.5249,-0.4974,-0.4833,-0.4726,-0.4648,-0.4564,-0.46,-0.4619,-0.4524,-0.452,-0.4515,-0.4485,-0.4476,-0.459,-0.459,-0.459,0,-0.6811,-0.6598,-0.6444,-0.6304,-0.6194,-0.6054,-0.5929,-0.5804,-0.5556,-0.5481,-0.5464,-0.5113,-0.4967,-0.4756,-0.4738,-0.4656,-0.4614,-0.4626,-0.4534,-0.4528,-0.4521,-0.449,-0.4479,-0.4596,-0.4595,-0.4595,-0.4594,0,-0.6678,-0.6532,-0.6459,-0.6227,-0.6109,-0.5977,-0.5799,-0.5697,-0.5606,-0.5478,-0.5291,-0.511,-0.4907,-0.485,-0.4757,-0.4624,-0.4618,-0.457,-0.454,-0.4525,-0.4492,-0.4479,-0.4604,-0.4602,-0.46,-0.4599,0,0,-0.6741,-0.6426,-0.6402,-0.6293,-0.6057,-0.5938,-0.5797,-0.5602,-0.5517,-0.5349,-0.5224,-0.4993,-0.4946,-0.4824,-0.4714,-0.4631,-0.4577,-0.4591,-0.4584,-0.4593,-0.4415,-0.4452,-0.4441,-0.4521,-0.4518,-0.4516,-0.4431,0,-0.6685,-0.6432,-0.6289,-0.6093,-0.5953,-0.5816,-0.5692,-0.5531,-0.5408,-0.5266,-0.5127,-0.4966,-0.4918,-0.4843,-0.4755,-0.4603,-0.4539,-0.4607,-0.4397,-0.4392,-0.4451,-0.4424,-0.4463,-0.4392,-0.4418,-0.4415,-0.4414,0,-0.6586,-0.6426,-0.6218,-0.5995,-0.593,-0.5823,-0.5631,-0.55,-0.5312,-0.5227,-0.5091,-0.4982,-0.4822,-0.4806,-0.4581,-0.4631,-0.4536,-0.4448,-0.4441,-0.4414,-0.4401,-0.4394,-0.4366,-0.4355,-0.4393,-0.4394,-0.4396,0,-0.665,-0.6381,-0.6221,-0.6132,-0.5869,-0.5796,-0.5682,-0.5496,-0.5387,-0.5218,-0.5144,-0.4958,-0.4855,-0.471,-0.4551,-0.4555,-0.4341,-0.4312,-0.4262,-0.4266,-0.4222,-0.4226,-0.4177,-0.4165,-0.4165,-0.4165,-0.4166,0,-0.6602,-0.6479,-0.6246,-0.6147,-0.6003,-0.5837,-0.5698,-0.5572,-0.5407,-0.5278,-0.5146,-0.5026,-0.4825,-0.4678,-0.4552,-0.4383,-0.4338,-0.4261,-0.4229,-0.4272,-0.4282,-0.4206,-0.4206,-0.4162,-0.4163,-0.4164,-0.4164,0,-0.6648,-0.6488,-0.6304,-0.607,-0.6008,-0.5913,-0.571,-0.5605,-0.5475,-0.5313,-0.5264,-0.5058,-0.4878,-0.4706,-0.4465,-0.438,-0.421,-0.4169,-0.4275,-0.4257,-0.4216,-0.4221,-0.4113,-0.4089,-0.4098,-0.4098,-0.4098,0,-0.6628,-0.6531,-0.6287,-0.6193,-0.6083,-0.5933,-0.5822,-0.5653,-0.5542,-0.5319,-0.5241,-0.5053,-0.4893,-0.4612,-0.4437,-0.425,-0.4202,-0.4177,-0.4173,-0.4218,-0.4198,-0.4205,-0.4193,-0.4181,-0.4181,-0.4182,-0.4183,0,-0.6607,-0.6532,-0.638,-0.6199,-0.6071,-0.5919,-0.5761,-0.569,-0.549,-0.537,-0.5188,-0.5064,-0.4819,-0.4631,-0.4425,-0.4301,-0.4206,-0.4186,-0.4163,-0.4206,-0.427,-0.4232,-0.4284,-0.4188,-0.4188,-0.4187,-0.4187,-0.4187,-0.6617,-0.6523,-0.6337,-0.617,-0.6035,-0.5891,-0.5782,-0.5638,-0.5484,-0.5274,-0.5182,-0.4996,-0.4805,-0.4519,-0.4396,-0.4245,-0.4222,-0.4192,-0.4183,-0.4177,-0.4185,-0.4297,-0.4207,-0.4206,-0.4206,-0.4206,-0.4205,0,-0.6587,-0.6461,-0.631,-0.6096,-0.5963,-0.589,-0.5712,-0.5604,-0.5444,-0.5277,-0.5123,-0.491,-0.4727,-0.4539,-0.4344,-0.4259,-0.421,-0.4213,-0.4216,-0.4188,-0.4218,-0.4256,-0.4255,-0.4255,-0.4255,-0.4255,-0.4255,-0.4255,-0.6556,-0.6393,-0.6296,-0.6062,-0.5933,-0.5754,-0.5658,-0.5522,-0.5388,-0.5158,-0.5007,-0.4887,-0.4708,-0.4499,-0.4326,-0.4275,-0.4208,-0.4223,-0.4159,-0.419,-0.4187,-0.4184,-0.4218,-0.421,-0.421,-0.4141,-0.4141,-0.414]}]]